Regional Weather Roundup
Issued by NWS

Home | Current Version | Previous Version | Graphics & Text | Print | Product List | Glossary Off
Versions: 1 2 3 4 5 6 7 8 9 10 11 12 13 14 15 16 17 18 19 20 21 22 23 24 25 26 27 28 29 30 31 32 33 34 35 36 37 38 39 40 41 42 43 44 45 46 47 48 49 50

000
ASUS43 KDTX 040610
RWRMI
MICHIGAN HOURLY REGIONAL WEATHER ROUNDUP
NATIONAL WEATHER SERVICE DETROIT/PONTIAC MI
200 AM EDT SAT JUL 04 2015

NOTE: "FAIR" INDICATES FEW OR NO CLOUDS BELOW 12,000 FEET WITH NO
SIGNIFICANT WEATHER AND/OR OBSTRUCTION TO VISIBILITY.

MIZ047>049-052>055-059>063-066>070-074>076-081>083-040700-
SOUTHEAST LOWER MICHIGAN

CITY           SKY/WX    TMP DP  RH WIND       PRES   REMARKS
ADRIAN         CLEAR     56  54  93 NW3       29.95S
6HR MIN TEMP:  56; 6HR MAX TEMP:  69;

ALMA           CLEAR     54  53  96 CALM      29.95S
ANN ARBOR      FOG       50  50 100 CALM      29.94S VSB 3/4
BAD AXE        CLEAR     51  49  90 CALM      29.94S
CARO           CLEAR     49  49  98 CALM      29.93S
DETROIT CITY   CLEAR     61  54  77 NW3       29.94R
6HR MIN TEMP:  60; 6HR MAX TEMP:  70;

DETROIT        PTCLDY    59  53  80 W5        29.94S
6HR MIN TEMP:  59; 6HR MAX TEMP:  71;

FLINT          CLEAR     54  49  83 CALM      29.94S
6HR MIN TEMP:  53; 6HR MAX TEMP:  75;

GROSSE ILE     CLEAR     59  55  88 CALM      29.92S FOG
HILLSDALE      CLEAR     57  57 100 CALM      29.96S FOG
HOWELL         CLEAR     55  52  90 CALM      29.95S

CITY           SKY/WX    TMP DP  RH WIND       PRES   REMARKS
JACKSON        CLEAR     56  54  93 CALM      29.95S
6HR MIN TEMP:  54; 6HR MAX TEMP:  70;

LAMBERTVILLE   CLEAR     56  53  90 CALM      29.94S FOG
6HR MIN TEMP:  56; 6HR MAX TEMP:  70;

LANSING        CLEAR     55  52  89 CALM      29.95S
6HR MIN TEMP:  55; 6HR MAX TEMP:  72;

LAPEER         FAIR      49  48  95 CALM      29.95S
MASON          CLEAR     52  51  97 CALM      29.95S
MONROE         CLEAR     56  56  97 CALM      29.93S
MT. CLEMENS    CLEAR     57  54  88 NW2       29.92S
6HR MIN TEMP:  56; 6HR MAX TEMP:  69;

PONTIAC        CLEAR     57  54  89 CALM      29.94S FOG
6HR MIN TEMP:  56; 6HR MAX TEMP:  72;

PORT HOPE        N/A     59  49  69 SW6       29.91F
6HR MIN TEMP:  56; 6HR MAX TEMP:  63;

PORT HURON       N/A     54  52  94 CALM      29.94S FOG
TRI CITIES     CLEAR     62  47  57 S5        29.95S
6HR MIN TEMP:  60; 6HR MAX TEMP:  73;

MIDLAND        FAIR      53  51  92 CALM      29.94R
TROY           CLEAR     62  53  71 CALM      29.96R
SAGINAW HB     CLEAR     54  46  76 S3        29.94R
$$
MIZ043>046-050>051-056>058-064>065-071>073-077>080-040700-
SOUTHWEST LOWER MICHIGAN

CITY           SKY/WX    TMP DP  RH WIND       PRES   REMARKS
BATTLE CREEK   CLEAR     58  54  86 CALM      29.96S
6HR MIN TEMP:  58; 6HR MAX TEMP:  75;

BENTON HARBOR  CLEAR     53  52  96 CALM      29.95S FOG
6HR MIN TEMP:  53; 6HR MAX TEMP:  66;

BIG RAPIDS     CLEAR     54  50  87 CALM      29.94F
6HR MIN TEMP:  54; 6HR MAX TEMP:  71;

COLDWATER      CLEAR     56  55  95 CALM      29.96S
6HR MIN TEMP:  55; 6HR MAX TEMP:  70;

FREMONT        FAIR      53  51  94 CALM      29.94F
HOLLAND        CLEAR     55  53  93 CALM      29.95F
6HR MIN TEMP:  55; 6HR MAX TEMP:  70;

GRAND RAPIDS   CLEAR     60  52  74 CALM      29.95S
6HR MIN TEMP:  60; 6HR MAX TEMP:  73;

IONIA          FAIR      57  52  82 W3        29.95S
KALAMAZOO      CLEAR     59  54  83 CALM      29.96S
6HR MIN TEMP:  57; 6HR MAX TEMP:  75;

LUDINGTON      PTCLDY    56  53  89 CALM      29.94S
MARSHALL       CLEAR     55  54  94 CALM      29.95S
MOUNT PLEASANT CLEAR     54  52  93 CALM      29.94S
6HR MIN TEMP:  54; 6HR MAX TEMP:  71;

MUSKEGON       CLEAR     56  51  84 CALM      29.95F
6HR MIN TEMP:  54; 6HR MAX TEMP:  68;

SOUTH HAVEN    CLEAR     54  52  93 CALM      29.95S
$$
MIZ016>042-040700-
NORTHERN LOWER MICHIGAN

CITY           SKY/WX    TMP DP  RH WIND       PRES   REMARKS
ALPENA         MOCLDY    61  54  77 CALM      29.91F
6HR MIN TEMP:  61; 6HR MAX TEMP:  70; 6HR PCP: TRACE;

BEAVER ISLAND  CLEAR     58  49  74 SW8       29.90S
6HR MIN TEMP:  58; 6HR MAX TEMP:  61;

BELLAIRE       CLOUDY    59  55  85 CALM      29.92S
6HR MIN TEMP:  56; 6HR MAX TEMP:  70;

CADILLAC       PTCLDY    52  49  91 CALM      29.94F
CHARLEVOIX     MOCLDY    64  48  57 SE3       29.93S
6HR MIN TEMP:  64; 6HR MAX TEMP:  69;

FRANKFORT      CLOUDY    66  45  46 SW3       29.92S
GAYLORD        CLOUDY    60  52  74 SW3       29.93S
6HR MIN TEMP:  58; 6HR MAX TEMP:  69;

GRAYLING       MOCLDY    56  54  94 CALM      29.94S
HARBOR SPRINGS CLEAR     59  55  87 CALM      29.90S
HOUGHTON LAKE  CLOUDY    58  55  90 CALM      29.94F
6HR MIN TEMP:  57; 6HR MAX TEMP:  70;

MANISTEE       PTCLDY   N/A N/A N/A CALM      29.93F
OSCODA         PTCLDY    56  53  90 CALM      29.92F
PELLSTON       PTCLDY    58  52  80 CALM      29.90S
6HR MIN TEMP:  58; 6HR MAX TEMP:  68; 6HR PCP:  0.02;

ROGERS CITY    MOCLDY    60  55  84 S5        29.91S
TRAVERSE CITY  CLOUDY    65  48  54 S3        29.90S
6HR MIN TEMP:  61; 6HR MAX TEMP:  72; 6HR PCP: TRACE;

$$
MIZ007>008-015-040700-
EASTERN UPPER MICHIGAN

CITY           SKY/WX    TMP DP  RH WIND       PRES   REMARKS
KINROSS        CLEAR     57  54  88 SW5       29.89S
6HR MIN TEMP:  57; 6HR MAX TEMP:  63;

MACKINAC ISLAN PTCLDY    59  53  78 W7        29.89S
6HR MIN TEMP:  57; 6HR MAX TEMP:  63; 6HR PCP:  0.01;

NEWBERRY       CLEAR     50  50  99 CALM      29.89S
S. S. MARIE    CLEAR     55  52  89 CALM      29.88S
6HR MIN TEMP:  55; 6HR MAX TEMP:  65; 6HR PCP: TRACE;

MUNISING         N/A     55  53  93 CALM      29.88F
6HR MIN TEMP:  55; 6HR MAX TEMP:  71; 6HR PCP:  0.01;

$$
MIZ004>006-011>014-085-040700-
CENTRAL UPPER MICHIGAN

CITY           SKY/WX    TMP DP  RH WIND       PRES   REMARKS
MANISTIQUE     CLEAR     51  50  96 CALM      29.88R FOG
ESCANABA       CLEAR     57  55  94 W3        29.88S
6HR MIN TEMP:  57; 6HR MAX TEMP:  70; 6HR PCP:  0.05;

MENOMINEE      CLEAR     63  54  72 CALM      29.88S
6HR MIN TEMP:  63; 6HR MAX TEMP:  72;

SAWYER-GWINN   CLEAR     56  54  94 CALM      29.91S
6HR MIN TEMP:  55; 6HR MAX TEMP:  74;

$$
MIZ001>003-009>011-084-040700-
WESTERN UPPER MICHIGAN

CITY           SKY/WX    TMP DP  RH WIND       PRES   REMARKS
IRON MOUNTAIN  PTCLDY    58  55  90 CALM      29.90R
6HR MIN TEMP:  57; 6HR MAX TEMP:  73;

HOUGHTON       CLEAR     56  53  90 CALM      29.91S
6HR MIN TEMP:  56; 6HR MAX TEMP:  68;

COPPER HARBOR    N/A     58  55  90 NW3       29.90S
6HR MIN TEMP:  58; 6HR MAX TEMP:  68;

IRONWOOD       MOCLDY    57  55  94 CALM      29.90R VSB 1/2
6HR MIN TEMP:  55; 6HR MAX TEMP:  70;

$$

ABBREVIATIONS USED IN REMARKS
   TC - TEMPERATURE IN CELSIUS
  WCI - WIND CHILL INDEX
   HX - HEAT INDEX
  VSB - VISIBILITY




USA.gov is the U.S. government's official web portal to all federal, state and local government web resources and services.